SCP
-0 -0 -0 -0 1 1 3 2 1 0 0 1 1 0 0 0 0 0 0 0 0 0 0 0 0 0 0 0 0 0 0 0 0 0 0 0 0 0 0 0 0 0 0
0 0 -0 0 1 1 3 1 0 0 1 1 1 1 0 0 0 0 0 0 0 0 0 0 0 0 0 0 0 0 0 0 0 0 0 0 0 0 0 0 0 0 0
0 0 0 0 1 1 1 3 1 1 1 1 2 2 2 2 1 0 0 0 1 0 0 0 0 0 0 0 0 0 0 0 0 0 0 0 0 0 0 0 0 0 0
-0 -0 0 0 1 1 1 2 0 0 1 1 2 1 2 2 1 1 1 1 0 0 0 0 0 0 0 0 0 0 0 0 0 0 0 0 0 0 0 0 0 0 0
-0 -0 -0 0 0 2 2 2 1 0 1 2 1 1 2 1 1 1 0 0 0 0 0 0 0 0 0 0 0 0 0 0 0 0 0 0 0 0 0 0 0 0 0
-0 -0 -0 -0 0 0 4 2 1 1 1 2 1 1 1 1 1 0 0 0 0 0 0 0 0 0 0 0 0 0 0 0 0 0 0 0 0 0 0 0 0 0 0
0 0 0 0 -0 0 3 3 1 2 1 1 0 2 1 0 0 0 0 0 0 0 0 0 0 0 0 0 0 0 0 0 0 0 0 0 0 0 0 0 0 0 0
0 0 0 0 0 0 2 4 2 2 0 0 0 1 1 0 0 0 0 0 0 0 0 0 0 0 0 0 0 0 0 0 0 0 0 0 0 0 0 0 0 0 0
0 0 0 0 0 0 1 2 4 3 0 0 0 1 1 0 0 0 0 0 0 0 0 0 -0 -0 0 0 0 0 0 0 0 0 0 0 0 0 0 0 0 0 0
0 0 0 0 0 0 1 3 4 4 1 0 1 1 1 0 0 0 0 0 0 0 0 -0 -0 0 0 0 0 0 0 0 0 0 0 0 0 0 0 0 0 0 0
-0 0 0 0 0 0 0 4 5 6 3 2 1 1 1 0 0 0 0 0 0 0 0 0 -0 0 0 0 0 0 0 0 0 0 0 0 0 0 0 0 0 0 0
-0 0 0 0 0 0 1 4 6 6 4 4 2 2 1 0 0 0 0 0 0 0 0 -0 0 0 0 0 0 0 0 0 0 0 0 0 0 0 0 0 0 0 0
0 0 0 0 0 2 4 5 5 6 5 4 2 1 0 0 0 0 0 0 0 0 0 0 0 0 0 0 0 0 0 0 0 0 0 0 0 0 0 0 0 0 0
0 0 0 0 0 1 7 5 5 6 5 4 2 0 0 0 0 0 0 0 0 0 0 0 0 0 0 0 0 0 0 0 0 0 0 0 0 0 0 0 0 0 0
0 0 0 0 1 2 6 6 6 6 4 0 0 0 0 0 0 0 0 0 0 0 0 -0 0 0 0 0 0 0 0 0 0 0 0 0 0 0 0 0 0 0 0
0 0 0 1 1 1 5 5 4 2 0 0 0 0 0 0 0 0 0 0 0 0 -0 -0 0 0 0 0 0 0 0 0 0 0 0 0 0 0 0 0 0 0 0
0 0 1 1 2 2 4 3 1 0 0 0 0 0 0 0 0 0 0 0 0 0 -0 0 -0 0 0 0 0 0 0 0 0 0 0 0 0 0 0 0 0 0 0
0 0 1 3 2 3 2 0 0 0 0 0 0 0 0 0 0 0 0 0 0 0 0 -0 0 0 0 0 0 0 0 0 0 0 0 0 0 0 0 0 0 0 0
0 0 1 1 1 0 0 0 0 0 0 0 0 0 0 0 0 0 0 0 0 -0 -0 0 0 0 0 0 0 0 0 0 0 0 0 0 0 0 0 0 0 0 0
0 0 0 0 0 0 0 0 0 0 0 0 0 0 0 0 0 0 0 0 -0 -0 0 0 0 0 0 0 0 0 0 0 0 0 0 0 0 0 0 0 0 0 0
0 0 0 0 0 0 0 0 0 0 0 0 0 0 0 0 0 0 0 0 0 -0 0 0 0 0 0 0 0 0 0 0 0 0 0 0 0 0 0 0 0 0 0
0 0 0 0 0 0 0 0 0 0 0 0 0 0 0 0 0 0 0 -0 -0 -0 0 0 0 0 0 0 0 0 0 0 0 0 0 0 0 0 0 0 0 0 0
0 0 0 0 0 0 0 -0 0 0 0 0 0 0 0 0 0 0 0 0 0 0 -0 -0 0 0 0 0 0 0 0 0 0 0 0 0 0 0 0 0 0 0 0
0 0 0 0 0 0 0 -0 -0 -0 0 0 0 0 0 0 0 0 0 0 0 -0 -0 -0 -0 0 0 0 0 0 0 0 0 0 0 0 0 0 0 0 0 0 0
0 0 0 0 0 0 0 0 0 0 0 0 0 0 0 0 0 0 0 0 0 0 -0 0 0 0 0 0 0 0 0 0 0 0 0 0 0 0 0 0 0 0 0
0 0 0 0 0 0 0 0 0 0 0 0 0 0 0 0 0 0 0 -0 -0 -0 -0 -0 0 0 0 0 0 0 0 0 0 0 0 0 0 0 0 0 0 0 0
Wind_Speed_500mb
58 41 30 19 20 30 62 106 95 87 80 74 66 57 49 46 44 39 30 37 34 30 28 26 21 16 15 20 25 26 30 31 29 17 6 3 9 13 12 16 20 28 34
57 47 34 17 18 25 44 80 89 88 85 84 75 62 52 44 44 39 32 30 30 29 28 21 22 15 16 21 24 23 21 16 6 4 4 4 12 20 23 27 24 34 34
53 49 35 23 18 31 39 65 91 94 91 77 62 55 52 45 41 42 38 36 28 28 26 20 18 18 17 20 20 17 7 4 3 4 4 5 8 17 23 20 23 31 23
66 57 43 29 24 39 42 56 96 90 79 79 70 64 64 58 59 48 38 37 30 32 24 19 21 21 21 20 9 4 6 4 5 10 10 11 13 9 14 16 24 27 20
58 59 55 50 32 30 53 53 66 77 76 85 72 62 67 64 68 49 46 44 42 34 24 20 18 18 19 8 7 8 5 5 7 9 10 13 12 14 14 23 36 25 26
59 57 41 41 41 34 47 62 69 71 81 85 69 62 66 66 55 55 56 57 44 34 29 21 17 17 11 9 10 7 7 4 8 10 9 8 7 10 12 20 30 37 38
57 52 53 48 37 37 43 60 73 82 86 81 76 81 70 57 63 63 58 48 44 34 26 19 13 14 11 15 12 7 4 5 9 11 11 12 12 16 17 21 28 36 41
50 54 48 47 41 34 41 52 72 85 87 78 93 91 64 64 59 54 42 58 43 17 12 16 13 15 17 15 11 6 1 8 11 11 11 13 17 22 25 27 31 35 37
50 51 47 53 44 42 37 46 67 87 87 87 92 74 67 74 54 48 65 58 35 19 31 31 27 24 19 13 9 4 6 8 13 13 16 17 22 26 27 27 30 31 19
58 55 47 42 53 50 48 51 53 81 88 94 99 84 73 67 61 70 81 59 53 47 43 39 31 26 19 13 9 7 11 9 14 16 13 18 23 25 27 29 30 29 30
55 51 30 25 31 47 54 57 57 79 94 90 94 83 78 75 77 81 76 69 46 42 42 36 33 25 19 14 11 12 12 9 13 11 16 21 22 23 26 29 32 34 36
60 54 44 46 33 34 57 57 63 81 101 93 85 84 89 83 86 89 74 56 42 53 48 41 32 27 21 18 12 12 14 13 11 14 17 21 22 24 26 30 32 31 31
56 60 58 54 46 25 52 56 66 86 102 96 95 94 84 96 97 83 73 54 56 54 46 41 38 31 25 19 16 13 14 11 11 15 20 21 24 25 27 27 30 32 34
52 55 55 37 59 14 51 57 74 86 100 104 100 93 93 98 84 82 74 61 55 58 51 45 38 30 24 21 20 16 13 9 11 18 21 23 26 27 27 29 31 33 35
49 43 49 50 50 18 55 66 79 88 90 104 100 91 92 89 87 85 75 62 65 57 54 48 39 33 27 22 15 13 11 8 14 20 23 26 29 26 27 31 31 32 37
50 56 47 46 49 26 61 71 83 95 104 105 95 92 92 98 101 92 78 75 67 61 55 47 41 34 25 19 13 10 8 10 16 19 22 26 26 29 31 28 23 31 39
53 65 35 40 45 43 76 79 90 91 94 98 96 97 96 104 95 88 69 72 68 62 51 47 38 32 27 17 9 7 7 14 18 21 21 26 34 37 35 27 24 25 30
34 27 40 44 47 73 82 85 87 98 99 99 104 103 108 108 96 84 84 75 66 56 51 45 36 34 28 12 6 3 11 15 18 21 27 34 37 41 37 33 32 32 31
18 10 70 85 88 99 102 104 111 113 118 120 116 120 112 97 87 82 72 69 68 62 53 42 37 30 28 15 7 7 12 15 19 25 32 37 39 38 36 37 38 35 31
8 60 89 120 120 118 120 122 111 113 115 121 132 124 108 91 90 81 80 74 64 58 48 45 36 32 28 19 9 10 13 16 23 29 33 38 35 34 40 41 42 40 41
16 71 103 122 132 127 126 120 110 99 106 112 116 107 94 89 88 86 79 66 59 56 50 45 40 34 28 22 15 14 13 26 27 32 34 33 33 36 37 38 41 42 35
54 98 107 113 126 120 114 112 105 105 111 100 97 104 93 93 88 78 72 66 60 55 53 47 46 37 31 23 17 19 27 31 30 34 33 34 33 34 34 36 33 31 31
85 110 114 114 113 115 119 124 113 101 96 102 96 97 97 94 84 76 70 66 55 53 55 48 49 43 31 25 24 26 30 30 30 33 35 31 30 29 32 35 35 36 40
102 108 123 126 119 127 135 137 118 107 109 107 102 98 93 88 78 68 60 57 57 54 55 52 48 40 31 30 27 28 26 30 30 30 29 32 34 35 34 35 38 43 49
100 102 111 122 120 128 131 120 105 107 109 108 107 102 93 83 76 67 63 60 56 48 50 48 43 38 39 34 28 25 33 33 33 29 32 36 38 40 42 42 43 46 48
93 103 115 122 118 119 111 105 104 104 108 110 106 99 91 85 82 80 76 62 58 52 47 43 37 44 41 30 30 34 33 32 30 32 42 45 47 49 47 49 50 50 52
Wind_Direction_500mb
281 299 327 319 265 244 214 207 208 196 192 191 191 190 190 194 200 198 196 197 206 208 214 213 211 223 238 257 268 280 288 294 295 295 249 351 167 209 262 289 306 325 333
289 285 303 329 241 241 227 210 199 190 189 193 194 188 177 176 186 183 192 193 209 210 222 212 209 226 252 274 285 293 295 290 284 172 232 212 226 241 282 288 309 324 330
286 285 293 291 239 217 227 216 197 191 195 190 192 184 191 168 178 193 204 204 212 219 224 211 225 247 271 284 297 298 286 172 168 305 330 278 262 276 281 278 315 333 341
271 275 278 287 264 223 222 229 205 204 219 201 189 187 185 172 183 188 205 203 204 219 221 229 235 253 281 297 284 188 175 207 294 304 309 300 289 310 305 302 331 352 349
269 269 270 271 268 239 225 230 219 210 206 193 196 193 191 189 189 184 197 218 202 207 219 230 231 252 280 268 222 200 213 262 281 296 297 292 296 308 303 319 342 355 2
277 278 268 264 254 251 229 225 216 220 204 207 207 203 197 195 185 184 192 197 196 193 207 215 224 264 243 214 194 220 249 287 329 332 339 340 347 360 350 337 342 348 357
280 286 279 267 252 247 219 223 220 212 207 217 207 198 196 201 203 181 184 207 208 199 199 209 231 232 215 204 201 228 265 349 354 6 14 19 19 11 358 0 353 347 345
282 308 279 256 248 244 226 214 221 213 220 214 200 200 203 206 195 177 212 217 216 194 225 257 242 212 194 193 202 200 25 34 40 42 51 33 31 20 9 1 353 346 339
312 289 299 251 240 236 232 208 219 221 214 208 200 203 198 202 215 211 204 215 196 196 223 241 205 199 197 196 197 161 80 76 78 74 50 37 31 16 3 354 349 349 328
319 312 305 256 239 240 231 215 216 217 218 208 203 204 201 207 181 182 201 195 197 201 213 192 191 190 188 186 174 130 108 98 92 65 44 30 21 3 351 345 345 343 339
310 307 279 207 219 218 221 223 211 214 216 204 205 199 194 188 181 187 193 194 195 199 189 177 179 178 175 165 157 135 115 111 79 60 32 18 4 353 346 343 341 339 338
293 293 286 246 231 213 202 213 213 205 210 199 200 194 192 194 196 191 189 189 186 181 174 174 175 171 159 151 145 131 118 98 80 47 19 3 355 348 345 341 340 340 344
294 290 282 252 217 209 193 204 205 198 200 198 190 187 193 188 184 187 186 177 178 173 168 176 167 158 151 147 132 126 115 91 52 24 5 357 354 351 349 351 351 354 352
280 286 283 251 219 187 182 190 186 186 189 186 185 184 187 187 187 185 176 173 172 171 169 161 151 149 142 134 130 123 97 70 19 2 359 357 356 358 358 1 358 353 354
287 286 280 251 200 176 172 182 179 177 172 176 179 180 184 187 184 173 167 172 169 166 159 153 145 139 131 125 119 107 91 43 10 5 0 2 8 4 1 358 356 354 359
291 291 271 226 190 193 170 174 165 163 176 176 177 181 180 173 172 164 165 164 161 158 156 143 142 136 126 120 113 90 68 27 15 11 10 5 0 9 5 358 345 350 357
299 289 227 217 182 173 167 166 162 171 174 172 175 175 172 161 159 154 156 160 157 154 146 144 140 134 131 129 113 78 27 19 26 26 12 7 8 13 19 12 6 0 5
299 275 190 169 164 166 161 159 166 168 171 169 168 171 163 154 149 156 153 157 155 151 146 142 137 141 132 139 121 69 24 33 36 27 20 22 18 18 18 15 15 18 15
284 261 154 154 161 153 155 159 155 157 159 159 160 154 148 146 147 147 152 154 151 144 143 136 144 145 139 150 133 35 37 41 36 28 27 26 20 16 13 14 21 25 29
222 137 133 139 138 135 145 143 137 145 146 152 155 150 143 146 152 152 153 151 145 137 139 141 148 146 139 140 111 69 43 42 35 32 28 25 18 13 16 18 22 24 21
171 136 128 127 130 134 139 127 127 125 132 140 142 137 146 150 147 151 152 143 140 138 140 145 140 134 126 122 109 83 55 42 32 33 31 25 19 19 23 23 24 21 11
149 131 123 122 124 128 130 123 123 130 132 138 150 143 147 143 147 148 142 138 140 143 141 140 128 124 124 120 101 66 48 45 37 39 35 30 23 24 29 31 29 22 17
132 125 124 120 124 128 131 128 130 141 147 150 139 135 139 143 143 142 139 136 142 147 139 134 129 122 118 102 70 57 50 47 45 43 38 33 30 36 33 33 30 28 28
121 126 125 120 123 127 133 140 151 154 148 144 139 141 140 137 138 136 135 141 144 142 137 131 123 123 110 83 71 61 60 58 54 50 48 48 47 45 45 42 38 34 30
120 123 122 125 127 140 146 152 154 152 144 142 142 142 140 135 131 130 135 140 138 134 129 126 121 111 96 82 76 77 63 57 56 57 58 55 51 47 44 42 40 38 34
125 127 127 133 137 143 143 149 151 150 144 141 141 138 133 130 132 134 132 130 128 126 122 113 104 93 84 88 78 66 67 64 61 58 57 54 48 44 41 40 38 36 35
Wind_Speed_850mb
58 41 30 19 20 30 62 106 95 87 80 74 66 57 49 46 44 39 30 37 34 30 28 26 21 16 15 20 25 26 30 31 29 17 6 3 9 13 12 16 20 28 34
57 47 34 17 18 25 44 80 89 88 85 84 75 62 52 44 44 39 32 30 30 29 28 21 22 15 16 21 24 23 21 16 6 4 4 4 12 20 23 27 24 34 34
53 49 35 23 18 31 39 65 91 94 91 77 62 55 52 45 41 42 38 36 28 28 26 20 18 18 17 20 20 17 7 4 3 4 4 5 8 17 23 20 23 31 23
66 57 43 29 24 39 42 56 96 90 79 79 70 64 64 58 59 48 38 37 30 32 24 19 21 21 21 20 9 4 6 4 5 10 10 11 13 9 14 16 24 27 20
58 59 55 50 32 30 53 53 66 77 76 85 72 62 67 64 68 49 46 44 42 34 24 20 18 18 19 8 7 8 5 5 7 9 10 13 12 14 14 23 36 25 26
59 57 41 41 41 34 47 62 69 71 81 85 69 62 66 66 55 55 56 57 44 34 29 21 17 17 11 9 10 7 7 4 8 10 9 8 7 10 12 20 30 37 38
57 52 53 48 37 37 43 60 73 82 86 81 76 81 70 57 63 63 58 48 44 34 26 19 13 14 11 15 12 7 4 5 9 11 11 12 12 16 17 21 28 36 41
50 54 48 47 41 34 41 52 72 85 87 78 93 91 64 64 59 54 42 58 43 17 12 16 13 15 17 15 11 6 1 8 11 11 11 13 17 22 25 27 31 35 37
50 51 47 53 44 42 37 46 67 87 87 87 92 74 67 74 54 48 65 58 35 19 31 31 27 24 19 13 9 4 6 8 13 13 16 17 22 26 27 27 30 31 19
58 55 47 42 53 50 48 51 53 81 88 94 99 84 73 67 61 70 81 59 53 47 43 39 31 26 19 13 9 7 11 9 14 16 13 18 23 25 27 29 30 29 30
55 51 30 25 31 47 54 57 57 79 94 90 94 83 78 75 77 81 76 69 46 42 42 36 33 25 19 14 11 12 12 9 13 11 16 21 22 23 26 29 32 34 36
60 54 44 46 33 34 57 57 63 81 101 93 85 84 89 83 86 89 74 56 42 53 48 41 32 27 21 18 12 12 14 13 11 14 17 21 22 24 26 30 32 31 31
56 60 58 54 46 25 52 56 66 86 102 96 95 94 84 96 97 83 73 54 56 54 46 41 38 31 25 19 16 13 14 11 11 15 20 21 24 25 27 27 30 32 34
52 55 55 37 59 14 51 57 74 86 100 104 100 93 93 98 84 82 74 61 55 58 51 45 38 30 24 21 20 16 13 9 11 18 21 23 26 27 27 29 31 33 35
49 43 49 50 50 18 55 66 79 88 90 104 100 91 92 89 87 85 75 62 65 57 54 48 39 33 27 22 15 13 11 8 14 20 23 26 29 26 27 31 31 32 37
50 56 47 46 49 26 61 71 83 95 104 105 95 92 92 98 101 92 78 75 67 61 55 47 41 34 25 19 13 10 8 10 16 19 22 26 26 29 31 28 23 31 39
53 65 35 40 45 43 76 79 90 91 94 98 96 97 96 104 95 88 69 72 68 62 51 47 38 32 27 17 9 7 7 14 18 21 21 26 34 37 35 27 24 25 30
34 27 40 44 47 73 82 85 87 98 99 99 104 103 108 108 96 84 84 75 66 56 51 45 36 34 28 12 6 3 11 15 18 21 27 34 37 41 37 33 32 32 31
18 10 70 85 88 99 102 104 111 113 118 120 116 120 112 97 87 82 72 69 68 62 53 42 37 30 28 15 7 7 12 15 19 25 32 37 39 38 36 37 38 35 31
8 60 89 120 120 118 120 122 111 113 115 121 132 124 108 91 90 81 80 74 64 58 48 45 36 32 28 19 9 10 13 16 23 29 33 38 35 34 40 41 42 40 41
16 71 103 122 132 127 126 120 110 99 106 112 116 107 94 89 88 86 79 66 59 56 50 45 40 34 28 22 15 14 13 26 27 32 34 33 33 36 37 38 41 42 35
54 98 107 113 126 120 114 112 105 105 111 100 97 104 93 93 88 78 72 66 60 55 53 47 46 37 31 23 17 19 27 31 30 34 33 34 33 34 34 36 33 31 31
85 110 114 114 113 115 119 124 113 101 96 102 96 97 97 94 84 76 70 66 55 53 55 48 49 43 31 25 24 26 30 30 30 33 35 31 30 29 32 35 35 36 40
102 108 123 126 119 127 135 137 118 107 109 107 102 98 93 88 78 68 60 57 57 54 55 52 48 40 31 30 27 28 26 30 30 30 29 32 34 35 34 35 38 43 49
100 102 111 122 120 128 131 120 105 107 109 108 107 102 93 83 76 67 63 60 56 48 50 48 43 38 39 34 28 25 33 33 33 29 32 36 38 40 42 42 43 46 48
93 103 115 122 118 119 111 105 104 104 108 110 106 99 91 85 82 80 76 62 58 52 47 43 37 44 41 30 30 34 33 32 30 32 42 45 47 49 47 49 50 50 52
Wind_Direction_850mb
281 299 327 319 265 244 214 207 208 196 192 191 191 190 190 194 200 198 196 197 206 208 214 213 211 223 238 257 268 280 288 294 295 295 249 351 167 209 262 289 306 325 333
289 285 303 329 241 241 227 210 199 190 189 193 194 188 177 176 186 183 192 193 209 210 222 212 209 226 252 274 285 293 295 290 284 172 232 212 226 241 282 288 309 324 330
286 285 293 291 239 217 227 216 197 191 195 190 192 184 191 168 178 193 204 204 212 219 224 211 225 247 271 284 297 298 286 172 168 305 330 278 262 276 281 278 315 333 341
271 275 278 287 264 223 222 229 205 204 219 201 189 187 185 172 183 188 205 203 204 219 221 229 235 253 281 297 284 188 175 207 294 304 309 300 289 310 305 302 331 352 349
269 269 270 271 268 239 225 230 219 210 206 193 196 193 191 189 189 184 197 218 202 207 219 230 231 252 280 268 222 200 213 262 281 296 297 292 296 308 303 319 342 355 2
277 278 268 264 254 251 229 225 216 220 204 207 207 203 197 195 185 184 192 197 196 193 207 215 224 264 243 214 194 220 249 287 329 332 339 340 347 360 350 337 342 348 357
280 286 279 267 252 247 219 223 220 212 207 217 207 198 196 201 203 181 184 207 208 199 199 209 231 232 215 204 201 228 265 349 354 6 14 19 19 11 358 0 353 347 345
282 308 279 256 248 244 226 214 221 213 220 214 200 200 203 206 195 177 212 217 216 194 225 257 242 212 194 193 202 200 25 34 40 42 51 33 31 20 9 1 353 346 339
312 289 299 251 240 236 232 208 219 221 214 208 200 203 198 202 215 211 204 215 196 196 223 241 205 199 197 196 197 161 80 76 78 74 50 37 31 16 3 354 349 349 328
319 312 305 256 239 240 231 215 216 217 218 208 203 204 201 207 181 182 201 195 197 201 213 192 191 190 188 186 174 130 108 98 92 65 44 30 21 3 351 345 345 343 339
310 307 279 207 219 218 221 223 211 214 216 204 205 199 194 188 181 187 193 194 195 199 189 177 179 178 175 165 157 135 115 111 79 60 32 18 4 353 346 343 341 339 338
293 293 286 246 231 213 202 213 213 205 210 199 200 194 192 194 196 191 189 189 186 181 174 174 175 171 159 151 145 131 118 98 80 47 19 3 355 348 345 341 340 340 344
294 290 282 252 217 209 193 204 205 198 200 198 190 187 193 188 184 187 186 177 178 173 168 176 167 158 151 147 132 126 115 91 52 24 5 357 354 351 349 351 351 354 352
280 286 283 251 219 187 182 190 186 186 189 186 185 184 187 187 187 185 176 173 172 171 169 161 151 149 142 134 130 123 97 70 19 2 359 357 356 358 358 1 358 353 354
287 286 280 251 200 176 172 182 179 177 172 176 179 180 184 187 184 173 167 172 169 166 159 153 145 139 131 125 119 107 91 43 10 5 0 2 8 4 1 358 356 354 359
291 291 271 226 190 193 170 174 165 163 176 176 177 181 180 173 172 164 165 164 161 158 156 143 142 136 126 120 113 90 68 27 15 11 10 5 0 9 5 358 345 350 357
299 289 227 217 182 173 167 166 162 171 174 172 175 175 172 161 159 154 156 160 157 154 146 144 140 134 131 129 113 78 27 19 26 26 12 7 8 13 19 12 6 0 5
299 275 190 169 164 166 161 159 166 168 171 169 168 171 163 154 149 156 153 157 155 151 146 142 137 141 132 139 121 69 24 33 36 27 20 22 18 18 18 15 15 18 15
284 261 154 154 161 153 155 159 155 157 159 159 160 154 148 146 147 147 152 154 151 144 143 136 144 145 139 150 133 35 37 41 36 28 27 26 20 16 13 14 21 25 29
222 137 133 139 138 135 145 143 137 145 146 152 155 150 143 146 152 152 153 151 145 137 139 141 148 146 139 140 111 69 43 42 35 32 28 25 18 13 16 18 22 24 21
171 136 128 127 130 134 139 127 127 125 132 140 142 137 146 150 147 151 152 143 140 138 140 145 140 134 126 122 109 83 55 42 32 33 31 25 19 19 23 23 24 21 11
149 131 123 122 124 128 130 123 123 130 132 138 150 143 147 143 147 148 142 138 140 143 141 140 128 124 124 120 101 66 48 45 37 39 35 30 23 24 29 31 29 22 17
132 125 124 120 124 128 131 128 130 141 147 150 139 135 139 143 143 142 139 136 142 147 139 134 129 122 118 102 70 57 50 47 45 43 38 33 30 36 33 33 30 28 28
121 126 125 120 123 127 133 140 151 154 148 144 139 141 140 137 138 136 135 141 144 142 137 131 123 123 110 83 71 61 60 58 54 50 48 48 47 45 45 42 38 34 30
120 123 122 125 127 140 146 152 154 152 144 142 142 142 140 135 131 130 135 140 138 134 129 126 121 111 96 82 76 77 63 57 56 57 58 55 51 47 44 42 40 38 34
125 127 127 133 137 143 143 149 151 150 144 141 141 138 133 130 132 134 132 130 128 126 122 113 104 93 84 88 78 66 67 64 61 58 57 54 48 44 41 40 38 36 35